Regional Weather Roundup
Issued by NWS

Home | Current Version | Previous Version | Graphics & Text | Print | Product List | Glossary On
Versions: 1 2 3 4 5 6 7 8 9 10 11 12 13 14 15 16 17 18 19 20 21 22 23 24 25 26 27 28 29 30 31 32 33 34 35 36 37 38 39 40 41 42 43 44 45 46 47 48 49 50
000
ASUS43 KBIS 260001
RWRND

NORTH DAKOTA REGIONAL WEATHER ROUNDUP
NATIONAL WEATHER SERVICE BISMARCK ND
700 PM CDT MON MAY 25 2015

NOTE: "FAIR" INDICATES FEW OR NO CLOUDS BELOW 12,000 FEET WITH NO
SIGNIFICANT WEATHER AND/OR OBSTRUCTIONS TO VISIBILITY.


NDZ001>003-009>011-017-260100-
NORTHWEST NORTH DAKOTA

CITY           SKY/WX    TMP DP  RH WIND       PRES   REMARKS
WILLISTON      PTSUNNY   69  47  45 W13       29.85S
6HR MIN TEMP:  69; 6HR MAX TEMP:  78;

MINOT          MOSUNNY   74  44  34 SW3       29.81S
$$

NDZ018>021-031>035-040>046-260100-
SOUTHWEST NORTH DAKOTA

CITY           SKY/WX    TMP DP  RH WIND       PRES   REMARKS
BISMARCK       CLOUDY    66  56  70 W8        29.85R
6HR MIN TEMP:  65; 6HR MAX TEMP:  71;

DICKINSON      CLOUDY    65  47  52 S9        29.88S
GARRISON         N/A     74  49  41 W12       29.83R
6HR MIN TEMP:  69; 6HR MAX TEMP:  77;

HETTINGER ARPT CLOUDY    62  50  64 SE12      29.92R
$$

NDZ004>008-012>016-024-026-027-054-260100-
NORTHEAST NORTH DAKOTA

CITY           SKY/WX    TMP DP  RH WIND       PRES   REMARKS
GRAND FORKS    PTSUNNY   72  53  51 S14       29.78R
GRND FRKS AFB  PTSUNNY   72  53  50 S15       29.78R
DEVILS LAKE    PTSUNNY   77  39  25 S10       29.77S
$$

NDZ022-023-025-028>030-036>039-047>053-260100-
SOUTHEAST NORTH DAKOTA

CITY           SKY/WX    TMP DP  RH WIND       PRES   REMARKS
FARGO          CLOUDY    64  54  69 E5        29.81R
6HR MIN TEMP:  64; 6HR MAX TEMP:  66; 6HR PCP: TRACE;

JAMESTOWN      MOSUNNY   67  57  70 S13       29.81R
$$



USA.gov is the U.S. government's official web portal to all federal, state and local government web resources and services.